CW0677 Weather Reports


Display with metric or nautical units.
time (UTC)temp
F
wind
direction
speed
MPH
gust
MPH
rain 1hr
in
rain 24hr
in
rain mn
in
humidity
%
barometer
mb
20260504060109 54 0 0.0 3.0 0.00 0.00 0.00 87 1014.9
20260504050107 55 0 0.0 4.0 0.00 0.00 0.00 85 1014.4
20260504044602 55 163 0.0 3.0 0.00 0.00 0.00 84 1014.3
20260504043056 55 147 0.0 5.0 0.00 0.00 0.00 84 1014.1
20260504041553 55 213 1.0 4.0 0.00 0.00 0.00 83 1013.9
20260504040107 55 0 0.0 3.0 0.00 0.00 0.00 83 1013.8
20260504034603 55 251 1.0 3.0 0.00 0.00 0.00 83 1013.5
20260504033113 56 255 1.0 4.0 0.00 0.00 0.00 82 1013.6
20260504031556 56 219 1.0 5.0 0.00 0.00 0.00 81 1013.3
20260504030056 57 252 2.0 6.0 0.00 0.00 0.00 80 1013.4
20260504024605 57 258 2.0 8.0 0.00 0.00 0.00 79 1013.2
20260504023055 58 273 3.0 9.0 0.00 0.00 0.00 78 1013.0
20260504021554 59 247 2.0 8.0 0.00 0.00 0.00 76 1012.9
20260504020057 60 261 5.0 12.0 0.00 0.00 0.00 74 1013.0
20260504014558 61 240 6.0 11.0 0.00 0.00 0.00 71 1013.0
20260504013053 62 301 4.0 11.0 0.00 0.00 0.00 71 1012.9
20260504011554 61 231 6.0 11.0 0.00 0.00 0.00 70 1012.9
20260504010059 61 240 5.0 11.0 0.00 0.00 0.00 72 1012.9
20260504004555 61 240 5.0 12.0 0.00 0.00 0.00 72 1013.0
20260504003100 61 254 4.0 12.0 0.00 0.00 0.00 71 1013.0
20260504001611 61 282 6.0 13.0 0.00 0.00 0.00 71 1013.0
20260504000057 61 212 5.0 13.0 0.00 0.00 0.00 71 1013.0
20260503234552 62 269 7.0 14.0 0.00 0.00 0.00 70 1012.9
20260503233053 63 269 4.0 12.0 0.00 0.00 0.00 67 1012.8
20260503231556 64 281 4.0 9.0 0.00 0.00 0.00 63 1012.7
20260503230058 63 261 6.0 10.0 0.00 0.00 0.00 63 1012.5
20260503224556 64 223 5.0 9.0 0.00 0.00 0.00 63 1012.5
20260503223055 63 255 5.0 10.0 0.00 0.00 0.00 64 1012.5
20260503221555 63 261 7.0 15.0 0.00 0.00 0.00 66 1012.5
20260503220111 63 266 6.0 12.0 0.00 0.00 0.00 67 1012.6
20260503214555 63 217 3.0 10.0 0.00 0.00 0.00 67 1012.7
20260503213056 63 213 2.0 9.0 0.00 0.00 0.00 66 1012.5
20260503211608 63 0 2.0 9.0 0.00 0.00 0.00 66 1012.5
20260503210057 63 169 2.0 9.0 0.00 0.00 0.00 66 1012.6
20260503204557 62 306 3.0 9.0 0.00 0.00 0.00 69 1012.5
20260503203056 62 28 3.0 9.0 0.00 0.00 0.00 68 1012.8
20260503201558 62 278 4.0 11.0 0.00 0.00 0.00 69 1012.9
20260503200057 62 275 4.0 9.0 0.00 0.00 0.00 68 1012.9
20260503194556 60 155 3.0 7.0 0.00 0.00 0.00 70 1013.0
20260503193120 60 206 2.0 7.0 0.00 0.00 0.00 72 1013.1
20260503191600 60 183 1.0 3.0 0.00 0.00 0.00 72 1013.3
20260503190055 60 9 1.0 4.0 0.00 0.00 0.00 73 1013.1
20260503184556 58 309 0.0 3.0 0.00 0.00 0.00 76 1013.1
20260503183057 57 250 2.0 6.0 0.00 0.00 0.00 77 1013.3
20260503181623 57 227 0.0 6.0 0.00 0.00 0.00 76 1013.2
20260503180134 57 256 3.0 7.0 0.00 0.00 0.00 77 1013.2
20260503174559 58 223 3.0 8.0 0.00 0.00 0.00 75 1013.2
20260503173100 58 280 1.0 6.0 0.00 0.00 0.00 77 1012.9
20260503171603 57 216 3.0 8.0 0.00 0.00 0.00 79 1012.8
20260503170104 57 225 2.0 7.0 0.00 0.00 0.00 79 1012.9
20260503120107 54 0 0.0 4.0 0.00 0.00 0.00 88 1010.7
20260503100108 54 254 0.0 3.0 0.00 0.00 0.00 88 1010.8
20260503081559 54 178 1.0 5.0 0.00 0.00 0.00 86 1011.4
20260503071615 55 250 1.0 3.0 0.00 0.00 0.00 84 1011.6